User: anonymous   Login
Location: Wellington
(41.3000°S, 174.7830°E)
Time: 12:33:52
(UTC+13:00)
Language:

NOAA 11 - Orbit

View from above orbital plane
View from above orbital plane
View from above satellite
View from above satellite

Ground track
Ground track

The orbit data is extracted from the following two-line orbital elements,

1 19531U 88089A   19295.49889386 -.00000027  00000-0  71276-5 0  9991
2 19531  98.4372 323.1035 0012362  92.5105 267.7485 14.15246362604011
Epoch (UTC): 22 October 2019 11:58:24
Eccentricity: 0.0012362
inclination: 98.4372°
perigee height: 832 km
apogee height: 850 km
right ascension of ascending node: 323.1035°
argument of perigee: 92.5105°
revolutions per day: 14.15246362
mean anomaly at epoch: 267.7485°
orbit number at epoch: 60401

The dashed part of the orbit path shows where the satellite is in the earth's shadow,  

DLR